Address 0x539ecce52fe767ca3c40b3a1e206f70a4e6db142 4

 
 
Txn Hash
Method
Block
From
To
Value [Txn Fee]
0xa4e3a674337d384a482e116ab5b6cddbbed768c8b997217dacb53dba677cee91Stake408946722023-03-29 9:15:013 days 11 hrs ago0x539ecce52fe767ca3c40b3a1e206f70a4e6db142OUT 0x8d34bb43429c124e55ef52b5b1539bfd121b0c8d0 MATIC0.039181443525 196.415934899
0x7e5b5466e21bacd6a2165336be64c9f2ef32a30f940847d3b417f20ea36c6695Unlock408916132023-03-29 7:14:573 days 13 hrs ago0x539ecce52fe767ca3c40b3a1e206f70a4e6db142OUT 0x8d37b12db32e07d6ddf10979c7e3cdeccac3dc130 MATIC0.0305840651 166.369647833
0x1383b601d7e7e21a6905287c8c057f16b8a8b68b5c9e4e69ec11b04b9f50cceeUnlock408916132023-03-29 7:14:573 days 13 hrs ago0x539ecce52fe767ca3c40b3a1e206f70a4e6db142OUT 0x8d37b12db32e07d6ddf10979c7e3cdeccac3dc130 MATIC0.030017359078 161.10215526
0x4e79955f2e984b53c59d3ac56a2d74a09f8a40e204d031b8b1a3567fc0487cd7Unlock408915922023-03-29 7:14:133 days 14 hrs ago0x539ecce52fe767ca3c40b3a1e206f70a4e6db142OUT 0x8d37b12db32e07d6ddf10979c7e3cdeccac3dc130 MATIC0.024893806043 131.840216733
0x0a04e806598ffc1b564f1bd7c7642fb8da8b32a18427c497171bb6e92c3af8b9Unlock408915122023-03-29 7:10:563 days 14 hrs ago0x539ecce52fe767ca3c40b3a1e206f70a4e6db142OUT 0x8d37b12db32e07d6ddf10979c7e3cdeccac3dc130 MATIC0.029788532539 155.707369357
0x507f03c0310fd2389348718383d2859293a39794b3175f46b7dc3b0e1f530164Unlock408915002023-03-29 7:10:303 days 14 hrs ago0x539ecce52fe767ca3c40b3a1e206f70a4e6db142OUT 0x8d37b12db32e07d6ddf10979c7e3cdeccac3dc130 MATIC0.031291182696 161.457878561
0x5fb73551d523292bd95ccf2bcf40d68a201d9863042b5aba6f36b7aac0dbdb60Claim Token399591482023-03-04 15:37:3228 days 5 hrs ago0x539ecce52fe767ca3c40b3a1e206f70a4e6db142OUT 0xd2b29725fe2ca396853084e0e640bfeff24bbde30 MATIC0.016721789805 169.866110726
0x9d43d4754373bd08c819724f9bfaf54b34734526500cba3a2cbb8166086ee3b9Stake387158432023-01-30 19:42:2161 days 1 hr ago0x539ecce52fe767ca3c40b3a1e206f70a4e6db142OUT 0x8d34bb43429c124e55ef52b5b1539bfd121b0c8d0 MATIC0.019020118023 64.474539237
0x3cf9aed8e80073c3b5ac914e17c73f3782710b888474f00ba298dfee86472673Approve387150802023-01-30 19:14:4761 days 1 hr ago0x539ecce52fe767ca3c40b3a1e206f70a4e6db142OUT Kommunitas: KOM Token0 MATIC0.048994987391 1,061.600524168
0xec91ff4912a2b855696b5c2dbfa6134ec66a1b1849d872a414958c25010ce4f9Unlock387147172023-01-30 19:01:2361 days 2 hrs ago0x539ecce52fe767ca3c40b3a1e206f70a4e6db142OUT 0x8d37b12db32e07d6ddf10979c7e3cdeccac3dc130 MATIC0.012981500318 60.832628006
0x170feb38aacb0abe3f9d3acebb2bf562e920f4f4e4add09a8aa03dd56bd56e43Stake381644752023-01-16 20:24:0875 days 50 mins ago0x539ecce52fe767ca3c40b3a1e206f70a4e6db142OUT 0x8d37b12db32e07d6ddf10979c7e3cdeccac3dc130 MATIC0.020194230147 66.405234185
0x9778cdf16c7f87e5195a25bb85d29a57ddb3710375b155ada2e9309f79062974Unlock381644262023-01-16 20:22:3075 days 52 mins ago0x539ecce52fe767ca3c40b3a1e206f70a4e6db142OUT 0x8d37b12db32e07d6ddf10979c7e3cdeccac3dc130 MATIC0.008431245905 39.984283263
0x7d17a7e795e7a08511c9def1e9b1d4dd3ec3f759e3ab54b51ae33f424ac59247Stake379983172023-01-12 20:27:2479 days 47 mins ago0x539ecce52fe767ca3c40b3a1e206f70a4e6db142OUT 0x8d37b12db32e07d6ddf10979c7e3cdeccac3dc130 MATIC0.01220322946 40.465258695
0x3750a05950484a30567e30d724577c900c8074d6835733c72c722817d66ac747Unlock379980852023-01-12 20:19:2879 days 55 mins ago0x539ecce52fe767ca3c40b3a1e206f70a4e6db142OUT 0x8d37b12db32e07d6ddf10979c7e3cdeccac3dc130 MATIC0.008620981791 41.381176067
0xd5469e45e6430a7391070eaf18b479f56b7c06bb3c0092beff550cbbba8030f4Transfer372977142022-12-26 11:56:1396 days 9 hrs ago0x539ecce52fe767ca3c40b3a1e206f70a4e6db142OUT Sphere Finance: SPHERE Token0 MATIC0.007655611924 48.359276117
0x3370bb28242f1ba45435cbe8e326f338fbd351b094f9c9f02e6d460946c3f4ddWithdraw Instant...372976772022-12-26 11:54:5996 days 9 hrs ago0x539ecce52fe767ca3c40b3a1e206f70a4e6db142OUT 0x284eba456e27ec9d07a656ce7cf68f2c78578f2e0 MATIC0.011625323926 54.372726587
0x13eb9c9370c94afdb957ae391efec589c139aab04c950dc7e97f89dd7e7baa6aClaim372976432022-12-26 11:53:4796 days 9 hrs ago0x539ecce52fe767ca3c40b3a1e206f70a4e6db142OUT 0xe63c9b4c00ce8abf8a958ea91a3899fe83a202600 MATIC0.006550925719 64.045810423
0x0b6f2848ed0d3cef9f3bfe992fb5588381a2503e1696f1a3189a535b1e5777ecTransfer372976152022-12-26 11:52:5196 days 9 hrs ago0x539ecce52fe767ca3c40b3a1e206f70a4e6db142OUT Toyoverse: TOYO Token0 MATIC0.004187956928 73.093356056
0x978064b85c650093d4c341e26c1fc67daf579619ac2455f78067a6367cce4d0bTransfer372975892022-12-26 11:51:5596 days 9 hrs ago0x539ecce52fe767ca3c40b3a1e206f70a4e6db142OUT MetaShooter: MHUNT Token0 MATIC0.002363714034 50.477588446
0x46add86d45a625b8b4a46812e8b333a23702ca18cca303bf76bdb409d03363ffClaim Token372974602022-12-26 11:47:2796 days 9 hrs ago0x539ecce52fe767ca3c40b3a1e206f70a4e6db142OUT 0xd2b29725fe2ca396853084e0e640bfeff24bbde30 MATIC0.003967286748 47.285333291
0x84bfe270a5831fcd3c488f951e4a4bb4b698008c5a0f9da43b4888860d7ebe2fTransfer372962792022-12-26 11:04:4596 days 10 hrs ago0x539ecce52fe767ca3c40b3a1e206f70a4e6db142OUT 0x51b5619f5180e333d18b6310c8d540aea43a03710 MATIC0.002072956663 39.442816494
0x6dd6ba84a32583c7606a6ecbef4abcd1a0f9bd384849676d8b4e7548ededaca1Transfer372959902022-12-26 10:54:4796 days 10 hrs ago0x539ecce52fe767ca3c40b3a1e206f70a4e6db142OUT0x31b35573689b2aa815486bea4040e736ab52c59b38 MATIC0.000925431457 44.06816466
0x333c73cee066ab64276c3d3a8e1b1b7e355bf85f17f68c1d94cd0c1297aa29f7Stake371754572022-12-23 10:53:5099 days 10 hrs ago0x539ecce52fe767ca3c40b3a1e206f70a4e6db142OUT 0x8d37b12db32e07d6ddf10979c7e3cdeccac3dc130 MATIC0.01487945196 49.757396872
0xaa32b9e6e95d197d7f71f88498baea90c585b27d83366d242cb3492d6b1d32ccUnlock371754282022-12-23 10:52:5299 days 10 hrs ago0x539ecce52fe767ca3c40b3a1e206f70a4e6db142OUT 0x8d37b12db32e07d6ddf10979c7e3cdeccac3dc130 MATIC0.010809863437 52.526571869
0x3b983ccdf1808ec6618d26509dee0cc89f611b241d976e39295ccca4d0da950aStake369762032022-12-18 11:01:58104 days 10 hrs ago0x539ecce52fe767ca3c40b3a1e206f70a4e6db142OUT 0x8d37b12db32e07d6ddf10979c7e3cdeccac3dc130 MATIC0.019812687487 66.820302682
[ Download CSV Export 
Latest 7 internal transactions
Parent Txn Hash Block From To Value
0x2cea036b4f20000a871d91f850833be749b07733138af9258e804036f713f00d303209702022-07-04 8:19:25271 days 12 hrs ago QuickSwap: Router0x539ecce52fe767ca3c40b3a1e206f70a4e6db14264.41526743817212315 MATIC
0x1b40ca551a7a71c11ea074c659e690f36dc3b654cb9dac79830234246ebd11bb242574312022-01-28 7:51:13428 days 13 hrs ago QuickSwap: Router0x539ecce52fe767ca3c40b3a1e206f70a4e6db1423 MATIC
0xc41b52832ad30bdf24993bf8d8546458d606e30abbfe536b61015ed52adbf9ee230389282021-12-27 22:00:52459 days 23 hrs ago ApeSwap: Ape Router V20x539ecce52fe767ca3c40b3a1e206f70a4e6db142147.937233773701900819 MATIC
0x76157f86fa397674f8fc5e8817b4d40a644a6f5d9af011302b3071d4e531a036230368752021-12-27 20:45:52460 days 28 mins ago ApeSwap: Ape Router V20x539ecce52fe767ca3c40b3a1e206f70a4e6db14247.255078150030492801 MATIC
0xebf4466d2c4880e2544533366dd1a6d1c6c63d659acab02e64050238aeeb902d227846732021-12-21 10:12:26466 days 11 hrs ago QuickSwap: Router0x539ecce52fe767ca3c40b3a1e206f70a4e6db1422.128535299907690857 MATIC
0x7aa604c4d4445620a9653791d1cda4cab263e43e0a4dcb56c86d6fbe5d96c6f9227802532021-12-21 7:26:47466 days 13 hrs ago 0xc590175e458b83680867afd273527ff58f74c02b0x539ecce52fe767ca3c40b3a1e206f70a4e6db1421,241.841266709679827547 MATIC
0xd193f76933eeb643df2cff75df32509bd382e75023aa0d17c29c98465a9ec7b5227633962021-12-20 21:05:14467 days 9 mins ago 0xc590175e458b83680867afd273527ff58f74c02b0x539ecce52fe767ca3c40b3a1e206f70a4e6db1421,099.663744502723386808 MATIC
[ Download CSV Export 
Loading

Contract Name:
0 MATIC

Compiler Version
0

Optimization Enabled:
0 MATIC

Other Settings:
-NA-
Block Transaction Gas Used Reward
Age Block Fee Address BC Fee Address Voting Power Jailed Incoming
Block Uncle Number Difficulty Gas Used Reward
Loading
Loading
Make sure to use the "Vote Down" button for any spammy posts, and the "Vote Up" for interesting conversations.